Weather History for TTCP - March, 2013

Change the Weather History Date:

Saturday, March 23, 2013

  Actual Average (TTPP) Record (TTPP)
Temperature  
Mean Temperature 82 °F -  
Max Temperature 87 °F 87 °F - (-1)
Min Temperature 77 °F 72 °F - (-1)
Cooling Degree Days 18    
Growing Degree Days 32 (Base 50)    
Moisture  
Dew Point 71 °F    
Average Humidity 70    
Maximum Humidity 89    
Minimum Humidity 58    
Precipitation  
Precipitation 0.00 in - - ()
Sea Level Pressure  
Sea Level Pressure 29.95 in    
Wind  
Wind Speed 9 mph ()    
Max Wind Speed 21 mph    
Max Gust Speed -    
Visibility 6.2 miles    
Events      
Averages and records for this station are not official NWS values.
T = Trace of Precipitation, MM = Missing Value Source: Averaged Metar Reports

Daily Weather History Graph

Daily Weather History Graph

Search for Another Location

Airport or City:

Trip Planner

Search our weather history database for the weather conditions in past years. The results will help you decide how hot, cold, wet, or windy it might be!

Date:

Astronomy

Mar. 23, 2013 Rise Set
Actual Time 6:05 AM AST 6:14 PM AST
Civil Twilight 5:44 AM AST 6:35 PM AST
Nautical Twilight 5:19 AM AST 6:59 PM AST
Astronomical Twilight 4:55 AM AST 7:24 PM AST
Moon 3:08 PM AST (3/23) 3:02 AM AST (3/23)
Length of Visible Light 12h 50m
Length of Day
12h 08m
Waxing Gibbous, 85% of the Moon is Illuminated
Mar 23
Waxing Gibbous
Mar 27
Full
Apr 3
Last Quarter
Apr 10
New
Apr 18
First Quarter

Hourly Weather History & Observations

Time (AST) Temp. Heat Index Dew Point Humidity Pressure Visibility Wind Dir Wind Speed Gust Speed Precip Events Conditions
12:00 AM 80.6 °F 84.6 °F 71.6 °F 74% 29.98 in 6.2 mi East 10.4 mph - N/A   Mostly Cloudy
2:00 AM 78.8 °F - 75.2 °F 89% 29.92 in 6.2 mi East 11.5 mph - N/A   Mostly Cloudy
3:00 AM 78.8 °F - 71.6 °F 78% 29.92 in 6.2 mi ENE 11.5 mph - N/A   Mostly Cloudy
5:00 AM 78.8 °F - 71.6 °F 78% 29.92 in 6.2 mi ENE 5.8 mph - N/A   Mostly Cloudy
6:00 AM 78.8 °F - 71.6 °F 78% 29.95 in 6.2 mi Calm Calm - N/A   Mostly Cloudy
7:00 AM 78.8 °F - 71.6 °F 78% 29.95 in 6.2 mi ENE 8.1 mph - N/A   Mostly Cloudy
8:00 AM 82.4 °F 87.2 °F 71.6 °F 70% 29.98 in 6.2 mi East 13.8 mph - N/A   Mostly Cloudy
9:00 AM 84.2 °F 89.6 °F 71.6 °F 66% 30.01 in 6.2 mi East 13.8 mph - N/A   Mostly Cloudy
10:00 AM 86.0 °F 91.8 °F 71.6 °F 62% 30.01 in 6.2 mi East 20.7 mph - N/A   Mostly Cloudy
11:00 AM 87.8 °F 93.8 °F 71.6 °F 58% 30.01 in 6.2 mi East 20.7 mph - N/A   Mostly Cloudy
12:00 PM 86.0 °F 91.8 °F 71.6 °F 62% 30.01 in 6.2 mi East 13.8 mph - N/A   Mostly Cloudy
1:00 PM 87.8 °F 93.8 °F 71.6 °F 58% 29.98 in 6.2 mi East 18.4 mph - N/A   Mostly Cloudy
2:00 PM 87.8 °F 93.8 °F 71.6 °F 58% 29.95 in 6.2 mi East 13.8 mph - N/A   Mostly Cloudy
3:00 PM 86.0 °F 91.8 °F 71.6 °F 62% 29.92 in 6.2 mi East 13.8 mph - N/A   Mostly Cloudy
4:00 PM 86.0 °F 91.8 °F 71.6 °F 62% 29.89 in 6.2 mi East 13.8 mph - N/A   Mostly Cloudy
5:00 PM 84.2 °F 88.4 °F 69.8 °F 62% 29.89 in 6.2 mi East 15.0 mph - N/A   Mostly Cloudy
6:00 PM 82.4 °F 86.3 °F 69.8 °F 66% 29.89 in 6.2 mi East 8.1 mph - N/A   Mostly Cloudy
7:00 PM 80.6 °F 83.9 °F 69.8 °F 70% 29.92 in 6.2 mi East 3.5 mph - N/A   Mostly Cloudy
8:00 PM 78.8 °F - 69.8 °F 74% 29.95 in 6.2 mi Calm Calm - N/A   Mostly Cloudy
9:00 PM 78.8 °F - 71.6 °F 78% 29.95 in 6.2 mi Calm Calm - N/A   Mostly Cloudy
10:00 PM 78.8 °F - 71.6 °F 78% 29.95 in 6.2 mi Calm Calm - N/A   Mostly Cloudy
11:00 PM 77.0 °F - 71.6 °F 83% 29.98 in 6.2 mi Calm Calm - N/A   Mostly Cloudy